Retour au catalogue

SL-8 R/B

ActifPO
NORAD 15056·ROCKET BODY·🇷🇺 Russia

Lancé Jun 21, 1984 depuis Plesetsk Cosmodrome

Loading…

Prochains Passages (prochaines 24 heures)

TLE

FraisSource: Space-Track

Époque: Sep 14, 2026, 11:36 UTC

1 15056U 84062B   26257.48351192  .00000073  00000-0  58761-4 0  9993
2 15056  82.9600 335.6201 0025176  11.2112 359.1237 13.76655531120637

Suivez SL-8 R/B en temps réel avec AllMySat

Download on the App Store